Regional Weather Roundup
Issued by NWS

Home | Current Version | Previous Version | Text Only | Print | Product List | Glossary Off
Versions: 1 2 3 4 5 6 7 8 9 10 11 12 13 14 15 16 17 18 19 20 21 22 23 24 25 26 27 28 29 30 31 32 33 34 35 36 37 38 39 40 41 42 43 44 45 46 47 48 49 50

000
ASUS43 KLMK 192102
RWRKY
KENTUCKY REGIONAL WEATHER ROUNDUP
NATIONAL WEATHER SERVICE LOUISVILLE KY
400 PM EST FRI JAN 19 2018

NOTE "FAIR" INDICATES FEW OR NO CLOUDS BELOW 12,000 FEET
WITH NO SIGNIFICANT WEATHER AND/OR OBSTRUCTIONS TO VISIBILITY.

KYZ001>023-026-027-061>063-070>075-192200-
WESTERN AND SOUTH CENTRAL KENTUCKY

CITY           SKY/WX    TMP DP  RH WIND       PRES   REMARKS
PADUCAH        FAIR      41  17  38 SW12G22   30.11F
HENDERSON      FAIR      39  22  50 S13       30.11S WCI  31
OWENSBORO      FAIR      39  23  52 S12       30.11F WCI  32
HOPKINSVILLE   FAIR      43  18  36 S16       30.14F
BOWLING GREEN  FAIR      41  22  46 S12       30.17F
GLASGOW        NOT AVBL
$$

KYZ024-025-028>034-038-045-046-053-192200-
NORTH CENTRAL KENTUCKY

CITY           SKY/WX    TMP DP  RH WIND       PRES   REMARKS
LOUISVILLE/SDF PTSUNNY   43  21  41 SW10      30.10F
LOUISVILLE/LOU FAIR      42  21  43 S13       30.11F
FORT KNOX      SUNNY     39  21  48 S16       30.13F WCI  30
$$

KYZ035>037-039>044-047>052-055>060-089>105-192200-
NORTHEAST KENTUCKY

CITY           SKY/WX    TMP DP  RH WIND       PRES   REMARKS
LEXINGTON      FAIR      39  19  44 S14       30.11F WCI  31
COVINGTON      PTSUNNY   38  20  48 S15       30.05F WCI  29
FRANKFORT      FAIR      40  18  41 S9        30.09F WCI  34
$$

KYZ054-064>069-076>088-106>120-192200-
SOUTHEAST KENTUCKY

CITY           SKY/WX    TMP DP  RH WIND       PRES   REMARKS
JACKSON        FAIR      44  12  27 VRB7      30.13S
LONDON         FAIR      44   8  23 SW8       30.15F
SOMERSET       NOT AVBL
MIDDLESBORO    FAIR      43  15  32 S10       30.19F
MONTICELLO     NOT AVBL
$$




USA.gov is the U.S. government's official web portal to all federal, state and local government web resources and services.